Location: Unspecified
(0.0000°N, 0.0000°E)
Time: 15:43:55
(UTC+00:00)

Hubble Space Telescope - Pass Details

Date: 13 September 2024
Orbit: 506 x 509 km, 28.5° (Epoch: 15 September)

Event Time Altitude Azimuth Distance (km) Brightness Sun altitude
Rises 19:29:27 0° 304° (NW) 2,590 5.2 -23.4°
Reaches altitude 10° 19:31:41 10° 307° (NW) 1,707 4.1 -24.0°
Enters shadow 19:34:35 45° 325° (NW) 688 1.5 -24.7°
